Regional Weather Roundup
Issued by NWS Cleveland, OH

Home | Current Version | Previous Version | Graphics & Text | Print | Product List | Glossary On
Versions: 1 2 3 4 5 6 7 8 9 10 11 12 13 14 15 16 17 18 19 20 21 22 23 24 25 26 27 28 29 30 31 32 33 34 35 36 37 38 39 40 41 42 43 44 45 46 47 48 49 50
000
ASUS41 KCLE 021710
RWRCLE
OHIO REGIONAL WEATHER ROUNDUP
NATIONAL WEATHER SERVICE WILMINGTON, OH
100 PM EDT MON MAY 02 2016

NOTE: "FAIR" INDICATES FEW OR NO CLOUDS BELOW 12,000 FEET WITH NO
SIGNIFICANT WEATHER AND/OR OBSTRUCTIONS TO VISIBILITY.

OHZ001>008-015>018-024>027-034-035-043-044-021800-
   NORTHWEST OHIO

CITY           SKY/WX    TMP DP  RH WIND       PRES   REMARKS
DEFIANCE       CLOUDY    51  46  83 E5        30.01S
FINDLAY        CLOUDY    52  43  71 NE14      29.98F
TOLEDO EXPRESS CLOUDY    51  46  83 NE8       30.01R
TOLEDO EXEC    CLOUDY    53  45  74 NE10      30.02S
LIMA           CLOUDY    52  48  86 E6        29.98F
$$

OHZ009>014-019>023-028>033-038-089-021800-
   NORTHEAST OHIO

CITY           SKY/WX    TMP DP  RH WIND       PRES   REMARKS
CLE-HOPKINS    CLOUDY    49  44  83 NE9       30.03S
CLE-LAKEFRONT  CLOUDY    48  45  89 N13       30.00S
CUY CO. ARPT   CLOUDY    50  46  87 NE12      30.00F
LORAIN-ELYRIA  CLOUDY    49  44  83 NE9       30.01S
ASHTABULA      CLOUDY    45  44  97 NE10      30.00F
AKRON-CANTON   CLOUDY    51  46  83 N12       29.97F
WOOSTER        CLOUDY    49  45  86 N9        29.99R
MANSFIELD      CLOUDY    48  47  96 NE8       29.99R
YOUNGSTOWN     CLOUDY    49  45  86 NW10      29.97F
$$

OHZ042-051>053-060>062-070>072-077>081-021800-
  SOUTHWEST OHIO

CITY           SKY/WX    TMP DP  RH WIND       PRES   REMARKS
CINC-COVINGTON CLOUDY    64  52  64 VRB6      29.96R
CINC-LUNKEN    FAIR      65  55  70 SW6       29.96F
HAMILTON       FAIR      66  52  60 W6        29.97F
DAYTON         CLOUDY    57  51  80 VRB3      29.98F
WRIGHT-PAT AFB PTSUNNY   59  54  84 CALM      29.96S
DAYTON GENERAL CLOUDY    60  53  77 NE5       29.95F
WILMINGTON     PTSUNNY   64  56  75 N5        29.94S
$$

OHZ036-037-039>041-045>050-054>059-063>069-073>076-082>088-021800-
  CENTRAL AND SOUTHEAST OHIO

CITY           SKY/WX    TMP DP  RH WIND       PRES   REMARKS
COLUMBUS       PTSUNNY   59  53  80 CALM      29.94F
OSU AIRPORT    PTSUNNY   60  53  77 N10       29.94F
BOLTON FIELD   CLOUDY   N/A N/A N/A N3        29.97S
RICKENBACK AFB PTSUNNY   61  54  78 NW5       29.95S
NEWARK         PTSUNNY   65  54  67 MISG      29.94F
MARION         CLOUDY    51  47  86 NE8       29.98F
LANCASTER      CLOUDY    62  55  77 CALM      29.95F
ZANESVILLE     FAIR      67  56  67 NW9       29.94S
NEW PHILLY     CLOUDY    58  50  75 NW8       29.96F
$$




USA.gov is the U.S. government's official web portal to all federal, state and local government web resources and services.